Weather History for KARB - December, 2012

Change the Weather History Date:

Tuesday, December 4, 2012

  Actual Average Record
Temperature  
Mean Temperature 50 °F -  
Max Temperature 61 °F 40 °F 61 °F (2012)
Min Temperature 39 °F 25 °F -4 °F (2002)
Degree Days  
Heating Degree Days 15    
Moisture  
Dew Point 46 °F    
Average Humidity 83    
Maximum Humidity 94    
Minimum Humidity 65    
Precipitation  
Precipitation 0.21 in - - ()
Sea Level Pressure  
Sea Level Pressure 29.99 in    
Wind  
Wind Speed 11 mph (West)    
Max Wind Speed 16 mph    
Max Gust Speed 21 mph    
Visibility 8 miles    
Events Rain    
Averages and records for this station are not official NWS values.
T = Trace of Precipitation, MM = Missing Value Source: NWS Daily Summary

Daily Weather History Graph

Daily Weather History Graph

Search for Another Location

Airport or City:

Trip Planner

Search our weather history database for the weather conditions in past years. The results will help you decide how hot, cold, wet, or windy it might be!

Date:

Astronomy

Dec. 04, 2012 Rise Set
Actual Time 7:47 AM EST 5:02 PM EST
Civil Twilight 7:16 AM EST 5:34 PM EST
Nautical Twilight 6:41 AM EST 6:09 PM EST
Astronomical Twilight 6:07 AM EST 6:43 PM EST
Moon 10:53 PM EST (12/4) 11:37 AM EST (12/4)
Length of Visible Light 10h 18m
Length of Day
9h 15m
Waning Gibbous, 69% of the Moon is Illuminated
Dec 4
Waning Gibbous
Dec 6
Last Quarter
Dec 13
New
Dec 20
First Quarter
Dec 28
Full

Hourly Weather History & Observations

Time (EST) Temp. Windchill Dew Point Humidity Pressure Visibility Wind Dir Wind Speed Gust Speed Precip Events Conditions
12:53 AM 61.0 °F - 55.0 °F 81% 29.93 in 10.0 mi SW 15.0 mph - N/A   Mostly Cloudy
1:53 AM 60.1 °F - 54.0 °F 80% 29.93 in 10.0 mi SSW 11.5 mph 18.4 mph N/A   Overcast
2:53 AM 59.0 °F - 53.1 °F 81% 29.93 in 10.0 mi SSW 10.4 mph 18.4 mph N/A   Mostly Cloudy
3:53 AM 57.9 °F - 53.1 °F 84% 29.92 in 10.0 mi SW 10.4 mph - N/A   Scattered Clouds
4:53 AM 59.0 °F - 52.0 °F 78% 29.91 in 10.0 mi SW 10.4 mph - N/A   Overcast
5:39 AM 57.2 °F - 51.8 °F 82% 29.92 in 10.0 mi SSW 8.1 mph - N/A   Mostly Cloudy
5:53 AM 57.0 °F - 52.0 °F 83% 29.91 in 10.0 mi SSW 8.1 mph - N/A   Overcast
6:53 AM 57.9 °F - 52.0 °F 81% 29.92 in 10.0 mi SSW 8.1 mph - N/A   Overcast
7:53 AM 57.9 °F - 53.1 °F 84% 29.94 in 10.0 mi West 11.5 mph - 0.00 in Rain Light Rain
8:24 AM 55.4 °F - 53.6 °F 94% 29.97 in 4.0 mi WNW 16.1 mph - 0.05 in Rain Rain
8:42 AM 53.6 °F - 51.8 °F 94% 29.98 in 2.5 mi WNW 16.1 mph - 0.11 in Rain Rain
8:51 AM 53.6 °F - 50.0 °F 88% 29.97 in 4.0 mi NW 9.2 mph - 0.12 in Rain Light Rain
8:53 AM 53.1 °F - 50.0 °F 89% 29.97 in 3.0 mi NW 9.2 mph - 0.13 in Rain Light Rain
8:56 AM 53.6 °F - 50.0 °F 88% 29.97 in 2.5 mi NW 9.2 mph - 0.00 in Rain Rain
9:05 AM 51.8 °F - 50.0 °F 94% 29.98 in 3.0 mi NW 6.9 mph - 0.01 in Rain Light Rain
9:12 AM 51.8 °F - 50.0 °F 94% 29.98 in 4.0 mi NNW 8.1 mph - 0.02 in Rain Light Rain
9:45 AM 51.8 °F - 50.0 °F 94% 30.00 in 4.0 mi WNW 8.1 mph - 0.05 in Rain Light Rain
9:53 AM 51.1 °F - 46.9 °F 86% 30.00 in 6.0 mi WNW 12.7 mph - 0.06 in Rain Light Rain
10:53 AM 50.0 °F - 44.1 °F 80% 30.01 in 10.0 mi WNW 9.2 mph - 0.00 in   Overcast
11:53 AM 48.0 °F - 42.1 °F 80% 30.01 in 10.0 mi WSW 6.9 mph - 0.01 in Rain Light Rain
12:53 PM 48.0 °F - 43.0 °F 83% 29.98 in 10.0 mi WSW 4.6 mph - 0.01 in Rain Light Rain
1:53 PM 48.0 °F - 43.0 °F 83% 29.98 in 10.0 mi West 6.9 mph - 0.00 in   Overcast
2:53 PM 48.9 °F - 43.0 °F 80% 30.00 in 10.0 mi West 9.2 mph - N/A   Scattered Clouds
3:53 PM 48.9 °F - 42.1 °F 77% 30.01 in 10.0 mi West 8.1 mph - N/A   Mostly Cloudy
4:53 PM 46.0 °F 42.5 °F 39.9 °F 79% 30.02 in 10.0 mi WSW 6.9 mph - N/A   Scattered Clouds
5:53 PM 43.0 °F 39.5 °F 39.0 °F 86% 30.03 in 10.0 mi WSW 5.8 mph - N/A   Clear
6:53 PM 43.0 °F 38.2 °F 37.9 °F 82% 30.06 in 10.0 mi West 8.1 mph - N/A   Clear
7:53 PM 39.9 °F 35.8 °F 34.0 °F 79% 30.06 in 10.0 mi WSW 5.8 mph - N/A   Clear
8:53 PM 39.9 °F 33.9 °F 33.1 °F 77% 30.07 in 10.0 mi West 9.2 mph - N/A   Clear
9:53 PM 42.1 °F 36.1 °F 33.1 °F 70% 30.09 in 10.0 mi West 10.4 mph - N/A   Clear
10:53 PM 42.1 °F 36.1 °F 33.1 °F 70% 30.10 in 10.0 mi WNW 10.4 mph - N/A   Clear
11:53 PM 41.0 °F 33.9 °F 30.0 °F 65% 30.12 in 10.0 mi NW 12.7 mph 20.7 mph N/A   Clear